Voltar ao catálogo

STARLINK-5931

AtivoComunicaçõesVLEO
NORAD 56785·PAYLOAD·🇺🇸 United States

Lançado May 31, 2023 de Vandenberg Space Force Base

Loading…

Próximas Passagens (próximas 24 horas)

TLE

AtualizadoSource: CelesTrak SupGP

Época: Sep 14, 2026, 14:55 UTC

1 56785C 23078U   26257.62201389 -.00033486  00000+0 -28073-2 0  2578
2 56785  70.0001 228.2114 0003545 266.5641 226.8511 14.98332222    10

Acompanhe STARLINK-5931 em tempo real com AllMySat

Download on the App Store